Time,TemperatureF,DewpointF,PressureIn,WindDirection,WindDirectionDegrees,WindSpeedMPH,WindSpeedGustMPH,Humidity,HourlyPrecipIn,Conditions,Clouds,dailyrainin,SoftwareType,DateUTC
2013-01-09 00:03:00,34.0,34.0,-100.00,South,190,8.0,10.0,99,-99.99,,,-99.99,,2013-01-09 05:03:00,
2013-01-09 00:12:00,34.0,34.0,-100.00,South,190,8.0,10.0,99,-99.99,,,-99.99,,2013-01-09 05:12:00,
2013-01-09 00:22:00,33.0,33.0,-100.00,SSE,165,6.0,10.0,100,-99.99,,,-99.99,,2013-01-09 05:22:00,
2013-01-09 00:33:00,33.0,33.0,-100.00,SSE,165,6.0,10.0,100,-99.99,,,-99.99,,2013-01-09 05:33:00,
2013-01-09 00:43:00,33.0,33.0,-100.00,SSE,165,6.0,10.0,100,-99.99,,,-99.99,,2013-01-09 05:43:00,
2013-01-09 00:53:00,33.0,33.0,-100.00,SSE,160,7.0,10.0,100,-99.99,,,-99.99,,2013-01-09 05:53:00,
2013-01-09 01:02:00,33.0,33.0,-100.00,SSE,160,7.0,10.0,100,-99.99,,,-99.99,,2013-01-09 06:02:00,
2013-01-09 01:12:00,33.0,33.0,-100.00,SSE,160,7.0,10.0,100,-99.99,,,-99.99,,2013-01-09 06:12:00,
2013-01-09 01:22:00,34.0,34.0,-100.00,South,170,9.0,13.0,99,-99.99,,,-99.99,,2013-01-09 06:22:00,
2013-01-09 01:32:00,34.0,34.0,-100.00,South,170,9.0,13.0,99,-99.99,,,-99.99,,2013-01-09 06:32:00,
2013-01-09 01:42:00,34.0,34.0,-100.00,South,170,9.0,13.0,99,-99.99,,,-99.99,,2013-01-09 06:42:00,
2013-01-09 01:53:00,36.0,36.0,-100.00,South,190,9.0,14.0,99,-99.99,,,-99.99,,2013-01-09 06:53:00,
2013-01-09 02:02:00,36.0,36.0,-100.00,South,190,9.0,14.0,99,-99.99,,,-99.99,,2013-01-09 07:02:00,
2013-01-09 02:12:00,36.0,36.0,-100.00,South,190,9.0,14.0,99,-99.99,,,-99.99,,2013-01-09 07:12:00,
2013-01-09 02:22:00,36.0,36.0,-100.00,South,180,8.0,11.0,99,-99.99,,,-99.99,,2013-01-09 07:22:00,
2013-01-09 02:32:00,36.0,36.0,-100.00,South,180,8.0,11.0,99,-99.99,,,-99.99,,2013-01-09 07:32:00,
2013-01-09 02:42:00,36.0,36.0,-100.00,South,180,8.0,11.0,99,-99.99,,,-99.99,,2013-01-09 07:42:00,
2013-01-09 02:52:00,37.0,37.0,-100.00,South,170,9.0,12.0,100,-99.99,,,-99.99,,2013-01-09 07:52:00,
2013-01-09 03:02:00,37.0,37.0,-100.00,South,170,9.0,12.0,100,-99.99,,,-99.99,,2013-01-09 08:02:00,
2013-01-09 03:12:00,37.0,37.0,-100.00,South,170,9.0,12.0,100,-99.99,,,-99.99,,2013-01-09 08:12:00,
2013-01-09 03:22:00,38.0,38.0,-100.00,South,185,8.0,17.0,99,-99.99,,,-99.99,,2013-01-09 08:22:00,
2013-01-09 03:32:00,38.0,38.0,-100.00,South,185,8.0,17.0,99,-99.99,,,-99.99,,2013-01-09 08:32:00,
2013-01-09 03:43:00,38.0,38.0,-100.00,South,185,8.0,17.0,99,-99.99,,,-99.99,,2013-01-09 08:43:00,
2013-01-09 03:53:00,38.0,38.0,-100.00,South,190,7.0,12.0,99,-99.99,,,-99.99,,2013-01-09 08:53:00,
2013-01-09 04:02:00,38.0,38.0,-100.00,South,190,7.0,12.0,99,-99.99,,,-99.99,,2013-01-09 09:02:00,
2013-01-09 04:12:00,38.0,38.0,-100.00,South,190,7.0,12.0,99,-99.99,,,-99.99,,2013-01-09 09:12:00,
2013-01-09 04:22:00,39.0,39.0,-100.00,SSW,200,9.0,14.0,99,-99.99,,,-99.99,,2013-01-09 09:22:00,
2013-01-09 04:32:00,39.0,39.0,-100.00,SSW,200,9.0,14.0,99,-99.99,,,-99.99,,2013-01-09 09:32:00,
2013-01-09 04:42:00,39.0,39.0,-100.00,SSW,200,9.0,14.0,99,-99.99,,,-99.99,,2013-01-09 09:42:00,
2013-01-09 04:53:00,39.0,39.0,-100.00,SSW,200,9.0,14.0,99,-99.99,,,-99.99,,2013-01-09 09:53:00,
2013-01-09 05:02:00,39.0,39.0,-100.00,SSW,200,9.0,14.0,99,-99.99,,,-99.99,,2013-01-09 10:02:00,
2013-01-09 05:12:00,39.0,39.0,-100.00,SSW,200,9.0,14.0,99,-99.99,,,-99.99,,2013-01-09 10:12:00,
2013-01-09 05:22:00,41.0,41.0,-100.00,SSW,205,11.0,17.0,100,-99.99,,,-99.99,,2013-01-09 10:22:00,
2013-01-09 05:32:00,41.0,41.0,-100.00,SSW,205,11.0,17.0,100,-99.99,,,-99.99,,2013-01-09 10:32:00,
2013-01-09 05:42:00,41.0,41.0,-100.00,SSW,205,11.0,17.0,100,-99.99,,,-99.99,,2013-01-09 10:42:00,
2013-01-09 05:52:00,42.0,42.0,-100.00,SW,215,13.0,20.0,100,-99.99,,,-99.99,,2013-01-09 10:52:00,
2013-01-09 06:02:00,42.0,42.0,-100.00,SW,215,13.0,20.0,100,-99.99,,,-99.99,,2013-01-09 11:02:00,
2013-01-09 06:12:00,42.0,42.0,-100.00,SW,215,13.0,20.0,100,-99.99,,,-99.99,,2013-01-09 11:12:00,
2013-01-09 06:22:00,42.0,42.0,-100.00,SW,215,14.0,19.0,99,-99.99,,,-99.99,,2013-01-09 11:22:00,
2013-01-09 06:31:00,42.0,42.0,-100.00,SW,215,12.0,21.0,100,-99.99,,,-99.99,,2013-01-09 11:31:00,
2013-01-09 06:33:00,42.0,42.0,-100.00,SW,215,14.0,19.0,99,-99.99,,,-99.99,,2013-01-09 11:33:00,
2013-01-09 06:43:00,42.0,42.0,-100.00,SW,215,14.0,19.0,99,-99.99,,,-99.99,,2013-01-09 11:43:00,
2013-01-09 06:53:00,42.0,42.0,-100.00,SW,215,12.0,21.0,100,-99.99,,,-99.99,,2013-01-09 11:53:00,
2013-01-09 07:03:00,42.0,42.0,-100.00,SW,215,12.0,21.0,100,-99.99,,,-99.99,,2013-01-09 12:03:00,
2013-01-09 07:12:00,42.0,42.0,-100.00,SW,215,12.0,21.0,100,-99.99,,,-99.99,,2013-01-09 12:12:00,
2013-01-09 07:23:00,42.0,42.0,-100.00,SW,215,12.0,21.0,100,-99.99,,,-99.99,,2013-01-09 12:23:00,
2013-01-09 07:53:00,42.0,42.0,-100.00,SW,220,19.0,27.0,100,-99.99,,,-99.99,,2013-01-09 12:53:00,
2013-01-09 08:03:00,42.0,42.0,-100.00,SW,220,19.0,27.0,100,-99.99,,,-99.99,,2013-01-09 13:03:00,
2013-01-09 08:12:00,42.0,42.0,-100.00,SW,220,19.0,27.0,100,-99.99,,,-99.99,,2013-01-09 13:12:00,
2013-01-09 08:23:00,41.0,41.0,-100.00,WSW,240,17.0,22.0,99,-99.99,,,-99.99,,2013-01-09 13:23:00,
2013-01-09 08:33:00,41.0,41.0,-100.00,WSW,240,17.0,22.0,99,-99.99,,,-99.99,,2013-01-09 13:33:00,
2013-01-09 08:43:00,41.0,41.0,-100.00,WSW,240,17.0,22.0,99,-99.99,,,-99.99,,2013-01-09 13:43:00,
2013-01-09 08:53:00,40.0,40.0,-100.00,SW,220,16.0,24.0,100,-99.99,,,-99.99,,2013-01-09 13:53:00,
2013-01-09 09:03:00,40.0,40.0,-100.00,SW,220,16.0,24.0,100,-99.99,,,-99.99,,2013-01-09 14:03:00,
2013-01-09 09:12:00,40.0,40.0,-100.00,SW,220,16.0,24.0,100,-99.99,,,-99.99,,2013-01-09 14:12:00,
2013-01-09 09:23:00,41.0,41.0,-100.00,SW,235,16.0,23.0,99,-99.99,,,-99.99,,2013-01-09 14:23:00,
2013-01-09 09:33:00,41.0,41.0,-100.00,SW,235,16.0,23.0,99,-99.99,,,-99.99,,2013-01-09 14:33:00,
2013-01-09 09:43:00,41.0,41.0,-100.00,SW,235,16.0,23.0,99,-99.99,,,-99.99,,2013-01-09 14:43:00,
2013-01-09 09:53:00,41.0,41.0,-100.00,SW,235,14.0,26.0,100,-99.99,,,-99.99,,2013-01-09 14:53:00,
2013-01-09 10:03:00,41.0,41.0,-100.00,SW,235,14.0,26.0,100,-99.99,,,-99.99,,2013-01-09 15:03:00,
2013-01-09 10:13:00,41.0,41.0,-100.00,SW,235,14.0,26.0,100,-99.99,,,-99.99,,2013-01-09 15:13:00,
2013-01-09 10:23:00,41.0,41.0,-100.00,WSW,240,19.0,24.0,99,-99.99,,,-99.99,,2013-01-09 15:23:00,
2013-01-09 10:33:00,41.0,41.0,-100.00,WSW,240,19.0,24.0,99,-99.99,,,-99.99,,2013-01-09 15:33:00,
2013-01-09 10:43:00,41.0,41.0,-100.00,WSW,240,19.0,24.0,99,-99.99,,,-99.99,,2013-01-09 15:43:00,
2013-01-09 10:53:00,42.0,42.0,-100.00,WSW,240,16.0,24.0,99,-99.99,,,-99.99,,2013-01-09 15:53:00,
2013-01-09 11:03:00,42.0,42.0,-100.00,WSW,240,16.0,24.0,99,-99.99,,,-99.99,,2013-01-09 16:03:00,
2013-01-09 11:12:00,42.0,42.0,-100.00,WSW,240,16.0,24.0,99,-99.99,,,-99.99,,2013-01-09 16:12:00,
2013-01-09 11:23:00,42.0,42.0,-100.00,WSW,240,18.0,22.0,99,-99.99,,,-99.99,,2013-01-09 16:23:00,
2013-01-09 11:31:00,42.0,42.0,-100.00,SW,235,20.0,24.0,99,-99.99,,,-99.99,,2013-01-09 16:31:00,
2013-01-09 11:33:00,42.0,42.0,-100.00,WSW,240,18.0,22.0,99,-99.99,,,-99.99,,2013-01-09 16:33:00,
2013-01-09 11:43:00,42.0,42.0,-100.00,WSW,240,18.0,22.0,99,-99.99,,,-99.99,,2013-01-09 16:43:00,
2013-01-09 11:53:00,42.0,42.0,-100.00,WSW,240,18.0,22.0,99,-99.99,,,-99.99,,2013-01-09 16:53:00,
2013-01-09 12:03:00,42.0,42.0,-100.00,SW,235,20.0,24.0,99,-99.99,,,-99.99,,2013-01-09 17:03:00,
2013-01-09 12:12:00,42.0,42.0,-100.00,SW,235,20.0,24.0,99,-99.99,,,-99.99,,2013-01-09 17:12:00,
2013-01-09 12:23:00,42.0,42.0,-100.00,SW,235,20.0,24.0,99,-99.99,,,-99.99,,2013-01-09 17:23:00,
2013-01-09 12:53:00,42.0,42.0,-100.00,WSW,245,17.0,24.0,100,-99.99,,,-99.99,,2013-01-09 17:53:00,
2013-01-09 13:03:00,42.0,42.0,-100.00,WSW,245,17.0,24.0,100,-99.99,,,-99.99,,2013-01-09 18:03:00,
2013-01-09 13:13:00,42.0,42.0,-100.00,WSW,245,17.0,24.0,100,-99.99,,,-99.99,,2013-01-09 18:13:00,
2013-01-09 13:24:00,43.0,43.0,-100.00,WSW,240,15.0,20.0,99,-99.99,,,-99.99,,2013-01-09 18:24:00,
2013-01-09 13:33:00,43.0,43.0,-100.00,WSW,240,15.0,20.0,99,-99.99,,,-99.99,,2013-01-09 18:33:00,
2013-01-09 13:43:00,43.0,43.0,-100.00,WSW,240,15.0,20.0,99,-99.99,,,-99.99,,2013-01-09 18:43:00,
2013-01-09 13:53:00,44.0,44.0,-100.00,SW,235,14.0,19.0,100,-99.99,,,-99.99,,2013-01-09 18:53:00,
2013-01-09 14:03:00,44.0,44.0,-100.00,SW,235,14.0,19.0,100,-99.99,,,-99.99,,2013-01-09 19:03:00,
2013-01-09 14:13:00,44.0,44.0,-100.00,SW,235,14.0,19.0,100,-99.99,,,-99.99,,2013-01-09 19:13:00,
2013-01-09 14:23:00,44.0,44.0,-100.00,SW,230,12.0,18.0,99,-99.99,,,-99.99,,2013-01-09 19:23:00,
2013-01-09 14:33:00,44.0,44.0,-100.00,SW,230,12.0,18.0,99,-99.99,,,-99.99,,2013-01-09 19:33:00,
2013-01-09 14:43:00,44.0,44.0,-100.00,SW,230,12.0,18.0,99,-99.99,,,-99.99,,2013-01-09 19:43:00,
2013-01-09 14:53:00,44.0,44.0,-100.00,WSW,240,13.0,17.0,99,-99.99,,,-99.99,,2013-01-09 19:53:00,
2013-01-09 15:03:00,44.0,44.0,-100.00,WSW,240,13.0,17.0,99,-99.99,,,-99.99,,2013-01-09 20:03:00,
2013-01-09 15:12:00,44.0,44.0,-100.00,WSW,240,13.0,17.0,99,-99.99,,,-99.99,,2013-01-09 20:12:00,
2013-01-09 15:23:00,44.0,44.0,-100.00,WSW,240,13.0,19.0,99,-99.99,,,-99.99,,2013-01-09 20:23:00,
2013-01-09 15:33:00,44.0,44.0,-100.00,WSW,240,13.0,19.0,99,-99.99,,,-99.99,,2013-01-09 20:33:00,
2013-01-09 15:43:00,44.0,44.0,-100.00,WSW,240,13.0,19.0,99,-99.99,,,-99.99,,2013-01-09 20:43:00,
2013-01-09 15:53:00,45.0,45.0,-100.00,WSW,245,13.0,19.0,99,-99.99,,,-99.99,,2013-01-09 20:53:00,
2013-01-09 16:03:00,45.0,45.0,-100.00,WSW,245,13.0,19.0,99,-99.99,,,-99.99,,2013-01-09 21:03:00,
2013-01-09 16:13:00,45.0,45.0,-100.00,WSW,245,13.0,19.0,99,-99.99,,,-99.99,,2013-01-09 21:13:00,
2013-01-09 16:23:00,44.0,44.0,-100.00,WSW,240,14.0,20.0,99,-99.99,,,-99.99,,2013-01-09 21:23:00,
2013-01-09 16:33:00,44.0,44.0,-100.00,WSW,240,14.0,20.0,99,-99.99,,,-99.99,,2013-01-09 21:33:00,
2013-01-09 16:43:00,44.0,44.0,-100.00,WSW,240,14.0,20.0,99,-99.99,,,-99.99,,2013-01-09 21:43:00,
2013-01-09 16:53:00,43.0,43.0,-100.00,WSW,245,14.0,19.0,99,-99.99,,,-99.99,,2013-01-09 21:53:00,
2013-01-09 17:03:00,43.0,43.0,-100.00,WSW,245,14.0,19.0,99,-99.99,,,-99.99,,2013-01-09 22:03:00,
2013-01-09 17:12:00,43.0,43.0,-100.00,WSW,245,14.0,19.0,99,-99.99,,,-99.99,,2013-01-09 22:12:00,
2013-01-09 17:23:00,42.0,42.0,-100.00,WSW,245,11.0,17.0,99,-99.99,,,-99.99,,2013-01-09 22:23:00,
2013-01-09 17:33:00,42.0,42.0,-100.00,WSW,245,11.0,17.0,99,-99.99,,,-99.99,,2013-01-09 22:33:00,
2013-01-09 17:43:00,42.0,42.0,-100.00,WSW,245,11.0,17.0,99,-99.99,,,-99.99,,2013-01-09 22:43:00,
2013-01-09 17:53:00,41.0,41.0,-100.00,WSW,240,8.0,11.0,100,-99.99,,,-99.99,,2013-01-09 22:53:00,
2013-01-09 18:03:00,41.0,41.0,-100.00,WSW,240,8.0,11.0,100,-99.99,,,-99.99,,2013-01-09 23:03:00,
2013-01-09 18:13:00,41.0,41.0,-100.00,WSW,240,8.0,11.0,100,-99.99,,,-99.99,,2013-01-09 23:13:00,
2013-01-09 18:23:00,40.0,40.0,-100.00,WSW,240,7.0,10.0,99,-99.99,,,-99.99,,2013-01-09 23:23:00,
2013-01-09 18:33:00,40.0,40.0,-100.00,WSW,240,7.0,10.0,99,-99.99,,,-99.99,,2013-01-09 23:33:00,
2013-01-09 18:43:00,40.0,40.0,-100.00,WSW,240,7.0,10.0,99,-99.99,,,-99.99,,2013-01-09 23:43:00,
2013-01-09 18:53:00,38.0,38.0,-100.00,SW,220,6.0,9.0,99,-99.99,,,-99.99,,2013-01-09 23:53:00,
2013-01-09 19:03:00,38.0,38.0,-100.00,SW,220,6.0,9.0,99,-99.99,,,-99.99,,2013-01-10 00:03:00,
2013-01-09 19:12:00,38.0,38.0,-100.00,SW,220,6.0,9.0,99,-99.99,,,-99.99,,2013-01-10 00:12:00,
2013-01-09 19:22:00,37.0,37.0,-100.00,SW,220,6.0,7.0,99,-99.99,,,-99.99,,2013-01-10 00:22:00,
2013-01-09 19:32:00,37.0,37.0,-100.00,SW,220,6.0,7.0,99,-99.99,,,-99.99,,2013-01-10 00:32:00,
2013-01-09 19:43:00,37.0,37.0,-100.00,SW,220,6.0,7.0,99,-99.99,,,-99.99,,2013-01-10 00:43:00,
2013-01-09 19:53:00,37.0,37.0,-100.00,SW,230,6.0,9.0,99,-99.99,,,-99.99,,2013-01-10 00:53:00,
2013-01-09 20:02:00,37.0,37.0,-100.00,SW,230,6.0,9.0,99,-99.99,,,-99.99,,2013-01-10 01:02:00,
2013-01-09 20:12:00,37.0,37.0,-100.00,SW,230,6.0,9.0,99,-99.99,,,-99.99,,2013-01-10 01:12:00,
2013-01-09 20:22:00,36.0,36.0,-100.00,SW,225,4.0,6.0,99,-99.99,,,-99.99,,2013-01-10 01:22:00,
2013-01-09 20:33:00,36.0,36.0,-100.00,SW,225,4.0,6.0,99,-99.99,,,-99.99,,2013-01-10 01:33:00,
2013-01-09 20:43:00,36.0,36.0,-100.00,SW,225,4.0,6.0,99,-99.99,,,-99.99,,2013-01-10 01:43:00,
2013-01-09 20:53:00,36.0,36.0,-100.00,SW,235,4.0,5.0,99,-99.99,,,-99.99,,2013-01-10 01:53:00,
2013-01-09 21:03:00,36.0,36.0,-100.00,SW,235,4.0,5.0,99,-99.99,,,-99.99,,2013-01-10 02:03:00,
2013-01-09 21:12:00,36.0,36.0,-100.00,SW,235,4.0,5.0,99,-99.99,,,-99.99,,2013-01-10 02:12:00,
2013-01-09 21:22:00,35.0,35.0,-100.00,SW,215,6.0,6.0,100,-99.99,,,-99.99,,2013-01-10 02:22:00,
2013-01-09 21:32:00,35.0,35.0,-100.00,SW,215,6.0,6.0,100,-99.99,,,-99.99,,2013-01-10 02:32:00,
2013-01-09 21:43:00,35.0,35.0,-100.00,SW,215,6.0,6.0,100,-99.99,,,-99.99,,2013-01-10 02:43:00,
2013-01-09 21:53:00,35.0,35.0,-100.00,SW,215,6.0,6.0,100,-99.99,,,-99.99,,2013-01-10 02:53:00,
2013-01-09 22:03:00,35.0,35.0,-100.00,SW,225,6.0,7.0,100,-99.99,,,-99.99,,2013-01-10 03:03:00,
2013-01-09 22:12:00,35.0,35.0,-100.00,SW,225,6.0,7.0,100,-99.99,,,-99.99,,2013-01-10 03:12:00,
2013-01-09 22:22:00,35.0,35.0,-100.00,SW,220,4.0,6.0,100,-99.99,,,-99.99,,2013-01-10 03:22:00,
2013-01-09 22:33:00,35.0,35.0,-100.00,SW,220,4.0,6.0,100,-99.99,,,-99.99,,2013-01-10 03:33:00,
2013-01-09 22:43:00,35.0,35.0,-100.00,SW,220,4.0,6.0,100,-99.99,,,-99.99,,2013-01-10 03:43:00,
2013-01-09 22:53:00,34.0,34.0,-100.00,SW,235,2.0,4.0,100,-99.99,,,-99.99,,2013-01-10 03:53:00,
2013-01-09 23:02:00,34.0,34.0,-100.00,SW,235,2.0,4.0,100,-99.99,,,-99.99,,2013-01-10 04:02:00,
2013-01-09 23:12:00,34.0,34.0,-100.00,SW,235,2.0,4.0,100,-99.99,,,-99.99,,2013-01-10 04:12:00,
2013-01-09 23:22:00,33.0,33.0,-100.00,WSW,245,1.0,3.0,99,-99.99,,,-99.99,,2013-01-10 04:22:00,
2013-01-09 23:32:00,33.0,33.0,-100.00,WSW,245,1.0,3.0,99,-99.99,,,-99.99,,2013-01-10 04:32:00,
2013-01-09 23:43:00,33.0,33.0,-100.00,WSW,245,1.0,3.0,99,-99.99,,,-99.99,,2013-01-10 04:43:00,
2013-01-09 23:53:00,32.0,32.0,-100.00,SSW,195,4.0,6.0,100,-99.99,,,-99.99,,2013-01-10 04:53:00,